#timestamp,LO_Frequency,Hit 
1499320815.4,286047002.8,N
1499320835.2,286047000.2,N
1499320855.1,286047000.2,N
1499320856.0,286047000.2,N
1499320875.8,286047000.2,N
1499320895.6,286047002.4,N
1499320915.5,286047001.7,N
1499320935.3,286047003.3,N
1499320955.2,286047005.1,N
1499320975.9,286047004.4,N
1499320995.7,286047004.3,N
1499321015.6,286047003.9,N
1499321035.4,286047002.6,N
1499321055.2,286047002.5,N
1499321075.1,286047000.1,N
1499321076.0,286047000.1,N
1499321095.8,286047001.9,N
1499321115.7,286047000.0,N
1499321135.5,286046999.7,N
1499321155.3,286047002.8,N
1499321175.2,286046999.7,N
1499321195.0,286047002.0,N
1499321195.9,286047002.0,N
1499321215.7,286047001.9,N
1499321235.6,286047002.5,N
1499321255.4,286047003.8,N
1499321275.3,286047001.7,N
1499321295.1,286046999.9,N
1499321296.0,286046999.9,N
1499321315.8,286047002.1,N
1499321335.7,286047001.8,N
1499321355.5,286047004.1,N
1499321375.4,286047003.3,N
1499321395.2,286047004.7,N
1499321415.0,286047004.1,N
1499321415.9,286047004.1,N
1499321435.8,286047001.6,N
1499321455.6,286047001.7,N
1499321475.4,286047001.3,N
1499321495.3,286047001.8,N
1499321515.1,286047002.4,N
1499321535.9,286047001.7,N
1499321555.7,286047002.0,N
1499321575.5,286047002.7,N
1499321595.4,286046999.8,N
1499321615.2,286046999.9,N
1499321635.0,286047000.9,N
1499321635.9,286047000.9,N
1499321655.8,286047000.7,N
1499321675.6,286046998.3,N
1499321695.5,286046998.1,N
1499321715.3,286047001.0,N
1499321735.1,286046998.3,N
1499321755.9,286046996.5,N
1499321775.7,286046999.6,N
1499321795.5,286046999.4,N
1499321815.4,286046998.9,N
1499321835.2,286046999.6,N
1499321855.1,286046996.5,N
1499321856.0,286046996.5,N
1499321875.8,286046997.3,N
1499321895.6,286046998.0,N
1499321915.5,286046995.5,N
1499321935.3,286046996.3,N
1499321955.1,286046996.1,N
1499321975.9,286046995.3,N
1499321995.7,286046997.6,N
1499322015.6,286046996.2,N
1499322035.4,286046993.4,N
1499322055.2,286046993.5,N
1499322075.1,286046993.7,N
1499322076.0,286046993.7,N
1499322095.8,286046993.5,N
1499322115.6,286046994.0,N
1499322135.5,286046994.0,N
1499322155.3,286046994.5,N
1499322175.2,286046994.7,N
1499322195.9,286046994.7,N
1499322215.7,286046992.6,N
1499322235.6,286046992.5,N
1499322255.4,286046990.2,N
1499322275.3,286046990.3,N
1499322295.1,286046990.9,N
1499322296.0,286046990.9,N
1499322315.8,286046990.9,N
1499322335.7,286046990.5,N
1499322355.5,286046991.2,N
1499322375.3,286046988.5,N
1499322395.2,286046991.3,N
1499322415.0,286046988.7,N
1499322415.9,286046988.7,N
1499322435.8,286046989.1,N
1499322455.6,286046989.1,N
1499322475.4,286046991.5,N
1499322495.3,286046988.7,N
1499322515.1,286046988.9,N
1499322535.9,286046988.8,N
1499322555.7,286046989.4,N
1499322575.5,286046989.2,N
1499322595.4,286046989.3,N
1499322615.2,286046989.1,N
1499322635.0,286046989.7,N
1499322635.9,286046989.7,N
1499322655.8,286046987.0,N
1499322675.6,286046990.0,N
1499322695.5,286046989.3,N
1499322715.3,286046989.1,N
1499322735.1,286046989.1,N
1499322755.9,286046988.5,N
1499322775.7,286046989.2,N
1499322795.5,286046989.2,N
1499322815.4,286046988.8,N
1499322835.2,286046988.9,N
1499322855.1,286046989.3,N
1499322856.0,286046989.3,N
1499322875.8,286046989.7,N
1499322895.6,286046986.9,N
1499322915.5,286046990.0,N
1499322935.3,286046988.1,N
1499322955.2,286046987.5,N
1499322975.9,286046988.4,N
1499322995.7,286046985.8,N
1499323015.6,286046986.3,N
1499323035.4,286046986.6,N
1499323055.2,286046986.3,N
1499323075.1,286046983.7,N
1499323076.0,286046983.7,N
1499323095.8,286046983.7,N
1499323115.7,286046986.3,N
1499323135.5,286046986.1,N
1499323155.3,286046986.6,N
1499323175.2,286046984.1,N
1499323195.0,286046986.6,N
1499323195.9,286046986.6,N
1499323215.8,286046985.8,N
1499323235.6,286046987.9,N
1499323255.4,286046985.3,N
1499323275.3,286046987.9,N
1499323295.1,286046988.4,N
1499323315.9,286046985.3,N
1499323335.7,286046987.9,N
1499323355.5,286046986.9,N
1499323375.4,286046989.0,N
1499323395.2,286046989.8,N
1499323415.0,286046988.5,N
1499323415.9,286046988.5,N
1499323435.8,286046991.4,N
1499323455.6,286046992.6,N
1499323475.5,286046991.2,N
1499323495.3,286046993.2,N
1499323515.1,286046992.9,N
1499323535.9,286046992.7,N
1499323555.7,286046992.1,N
1499323575.5,286046990.1,N
1499323595.4,286046993.2,N
1499323615.2,286046990.9,N
1499323635.1,286046988.9,N
1499323636.0,286046988.9,N
1499323655.8,286046988.8,N
1499323675.6,286046990.4,N
1499323695.5,286046993.2,N
1499323715.3,286046990.4,N
1499323735.2,286046989.4,N
1499323755.9,286046989.7,N
1499323775.7,286046989.7,N
1499323795.6,286046990.0,N
1499323815.4,286046988.0,N
1499323835.2,286046989.9,N
1499323855.1,286046991.6,N
1499323856.0,286046991.6,N
1499323875.8,286046991.5,N
1499323895.7,286046991.4,N
1499323915.5,286046991.8,N
1499323935.3,286046993.0,N
1499323955.2,286046990.4,N
1499323975.9,286046992.8,N
1499323995.7,286046990.8,N
1499324015.6,286046991.1,N
1499324035.4,286046990.8,N
1499324055.3,286046991.7,N
1499324075.5,286046992.8,N
1499324095.3,286046991.4,N
1499324115.2,286046989.1,N
1499324135.0,286046988.4,N
1499324135.9,286046988.4,N
1499324155.8,286046989.6,N
1499324175.6,286046987.2,N
1499324195.4,286046987.5,N
1499324215.3,286046987.5,N
1499324235.1,286046989.7,N
1499324255.9,286046991.3,N
1499324275.7,286046992.7,N
1499324295.5,286046992.2,N
1499324315.4,286046992.5,N
1499324335.2,286046993.0,N
1499324355.1,286046992.3,N
1499324356.0,286046992.3,N
1499324375.8,286046992.3,N
1499324395.6,286046992.6,N
